Hourly Data Report for October 24, 2016

All times are specified in Local Standard Time (LST). Add 1 hour to adjust for Daylight Saving Time where and when it is observed.

HALL BEACH A
NUNAVUT

68°46'33.000" N
81°14'33.000" W
9.10 m
2402354
71293
YUX

Download Data

Hourly Data (October 2016)
Hourly Data Report for October 24, 2016
Temp Definition
°C
Dew Point Temp Definition
°C
Rel Hum Definition
%
Wind Dir Definition
10's deg

Wind Spd Definition
km/h
Visibility Definition
km
Stn Press Definition
kPa
Hmdx Definition


Wind Chill Definition


Weather Definition


TIME
00:00 Legend Double Dagger -10.7 -11.9 91 32 22 16.1 103.45   -19 Snow
01:00 Legend Double Dagger -10.3 -11.4 92 32 22 16.1 103.43   -19 Snow
02:00 Legend Double Dagger -10.1 -11.2 92 31 22 16.1 103.36   -18 Snow
03:00 Legend Double Dagger -10.6 -11.8 91 29 17 16.1 103.33   -18 Snow
04:00 Legend Double Dagger -9.8 -10.9 92 32 17 16.1 103.29   -17 Snow
05:00 Legend Double Dagger -9.2 -10.4 91 31 18 16.1 103.26   -16 LegendNANA
06:00 Legend Double Dagger -8.7 -10.5 87 32 18 16.1 103.23   -16 Snow
07:00 Legend Double Dagger -8.1 -10.4 84 34 26 16.1 103.17   -16 LegendNANA
08:00 Legend Double Dagger -7.9 -9.7 87 32 18 16.1 103.11   -15 Snow
09:00 Legend Double Dagger -8.3 -10.0 88 31 15 12.9 103.07   -15 Snow
10:00 Legend Double Dagger -8.1 -9.8 88 32 17 16.1 103.02   -15 Snow
11:00 Legend Double Dagger -7.5 -9.5 86 32 18 16.1 102.96   -14 LegendNANA
12:00 Legend Double Dagger -7.6 -9.7 85 32 30 16.1 102.91   -16 LegendNANA
13:00 Legend Double Dagger -8.7 -10.1 90 31 15 16.1 102.87   -15 LegendNANA
14:00 Legend Double Dagger -8.4 -9.8 90 30 15 16.1 102.82   -15 LegendNANA
15:00 Legend Double Dagger -9.1 -10.2 92 29 15 16.1 102.78   -16 LegendNANA
16:00 Legend Double Dagger -8.6 -9.1 96 29 18 2.8 102.72   -16 Fog
17:00 Legend Double Dagger -9.7 -10.4 95 28 17 2.0 102.69   -17 Snow
18:00 Legend Double Dagger -7.9 -8.6 95 29 18 16.1 102.63   -15 LegendNANA
19:00 Legend Double Dagger -10.1 -11.3 91 31 21 16.1 102.59   -18 LegendNANA
20:00 Legend Double Dagger -8.4 -9.5 92 31 28 16.1 102.54   -17 LegendNANA
21:00 Legend Double Dagger -8.3 -9.2 93 35 22 16.1 102.52   -16 LegendNANA
22:00 Legend Double Dagger -8.5 -9.6 92 34 22 16.1 102.50   -16 LegendNANA
23:00 Legend Double Dagger -10.6 -11.9 90 33 30 16.1 102.48   -20 LegendNANA

Notes on Data Quality.

Legend

  • E = Estimated
  • M = Missing
  • NA = Not Available
  • ‡ = Partner data that is not subject to review by the National Climate Archives
Date modified: